Theta_e
302 302 302 302 302 302 302 302 302 303 303 303 302 302 303 303 304 305 305 304 304 303 303 303 303 304 306 307 307 306 305 305 306 307 308 310 312 312 310 308 308 308 309 308 310 312 312 310 310 312 310 309 311 312 313 314 314 314 317 320 316 315 314 315 317 315 314 315 313 312 311 313 313 312 326 344 344 343 345 344 345 345 344 345 344 345 346 345
302 302 302 302 302 302 302 302 302 303 303 303 303 303 303 303 303 304 305 305 306 305 305 304 304 304 304 305 305 304 305 305 305 307 310 313 313 314 313 310 308 308 308 308 309 310 312 310 310 311 310 311 312 313 314 314 315 315 316 316 316 316 313 312 314 312 311 313 311 311 312 311 314 311 318 342 346 342 346 346 344 345 346 346 345 346 345 343
302 302 302 302 302 302 302 302 302 302 302 302 303 303 303 303 303 303 304 305 306 306 306 306 305 305 304 304 303 304 304 304 307 311 314 314 312 312 313 312 309 308 309 308 309 310 311 310 310 310 310 312 314 314 315 314 316 315 315 317 316 314 312 310 311 311 312 312 310 310 312 311 314 312 319 342 346 344 347 346 345 345 345 346 346 345 345 342
302 302 302 302 302 302 302 302 302 302 302 302 302 303 302 303 303 303 303 304 304 305 306 306 306 305 304 304 304 304 304 306 313 315 315 315 313 312 311 312 310 308 309 309 310 309 309 309 309 309 309 313 314 314 315 315 316 315 316 319 315 311 312 313 311 313 313 312 311 310 312 312 313 314 325 341 345 347 346 343 344 344 345 345 345 345 344 342
301 301 301 301 302 302 302 302 302 302 302 302 302 302 302 302 302 303 303 303 303 304 304 305 306 305 304 303 303 304 303 308 317 317 316 315 313 312 311 311 309 309 310 309 309 308 309 308 308 310 310 313 315 315 315 315 315 314 315 315 313 312 312 313 313 315 315 314 312 310 312 313 313 313 321 336 344 347 342 340 343 343 345 346 345 344 343 341
301 301 301 301 301 301 301 301 301 302 302 302 302 302 302 302 302 302 302 303 303 303 303 304 305 305 305 304 303 303 304 308 314 314 314 314 313 312 311 310 309 309 309 310 309 307 308 308 308 311 312 313 314 315 316 315 314 315 316 314 313 314 312 314 315 317 316 313 311 311 313 311 312 312 313 329 339 338 334 337 342 343 345 346 346 344 343 342
300 300 300 300 301 301 301 301 301 301 301 301 302 302 302 302 302 302 302 302 302 303 303 303 303 304 305 305 304 304 304 306 308 310 312 313 314 313 311 311 310 310 309 309 309 307 308 309 309 312 313 314 314 314 315 315 314 316 318 314 315 315 313 315 316 316 315 313 312 313 312 310 311 311 315 325 328 328 333 338 340 343 345 345 345 344 342 342
300 300 300 300 300 300 300 300 300 300 301 301 301 301 301 302 302 302 302 302 302 302 302 303 303 303 304 305 305 305 305 305 306 309 313 315 315 314 314 313 311 311 310 309 308 307 309 310 310 311 313 314 314 314 315 314 314 316 317 314 315 316 315 316 316 315 315 313 313 312 311 311 311 310 317 321 319 326 334 338 341 343 345 345 344 343 342 342
299 300 300 300 300 300 300 300 300 300 300 300 300 301 301 301 301 301 302 302 302 302 302 302 302 302 302 304 305 307 306 305 309 312 314 315 316 314 314 314 313 313 311 309 308 306 308 310 310 311 312 313 313 314 314 315 316 315 315 314 315 315 315 315 314 313 313 312 311 311 311 311 311 314 321 321 324 334 337 340 343 343 344 344 344 344 343 343
299 299 299 299 300 300 300 300 300 300 300 300 300 300 300 301 301 301 301 302 302 302 302 302 302 302 302 303 305 308 307 305 310 315 317 317 315 314 313 312 313 313 312 310 308 307 307 309 310 310 312 312 313 314 313 315 316 315 314 314 313 313 312 311 311 312 312 311 311 311 312 311 310 315 321 325 334 340 341 342 343 344 345 345 345 344 343 343
299 299 299 299 299 299 300 300 300 300 300 300 300 300 300 300 300 301 301 301 301 302 302 302 302 302 302 303 304 307 306 305 309 313 316 317 315 313 312 312 312 312 312 311 310 308 306 308 311 311 313 313 313 312 312 313 314 313 312 311 311 310 310 310 310 312 311 312 313 311 312 312 310 313 316 322 338 343 342 342 344 344 345 345 345 345 344 344
299 299 299 299 299 299 299 299 299 299 300 300 300 300 300 300 300 300 301 301 301 301 301 302 302 302 302 302 303 306 305 307 308 310 314 316 315 313 312 312 313 312 312 311 311 309 307 308 311 312 312 313 313 312 312 313 312 312 311 311 313 311 311 311 309 311 311 312 313 311 312 314 314 314 313 323 339 344 342 342 344 344 345 346 345 345 345 344
299 299 299 299 299 299 299 299 299 299 300 300 300 300 299 299 299 300 300 301 301 301 301 301 301 301 302 302 304 305 305 305 306 308 314 316 316 315 315 314 314 314 313 311 311 310 307 308 312 313 313 313 314 313 313 312 311 311 311 310 313 313 314 311 308 310 310 311 313 311 313 318 322 313 313 332 342 344 343 342 344 343 345 345 345 345 344 345
298 298 298 298 299 299 299 299 299 299 299 299 300 299 299 299 299 300 300 301 301 301 301 301 301 301 302 303 304 305 305 305 306 307 312 315 317 316 316 316 316 316 314 312 311 310 308 307 311 312 312 313 313 313 314 312 311 313 311 311 312 312 317 313 308 311 311 312 312 312 314 317 323 313 315 339 344 343 343 342 343 343 344 344 345 345 344 346
298 298 298 298 298 298 298 299 299 299 299 299 299 299 299 299 299 300 300 300 300 301 301 301 301 302 303 304 305 307 309 309 310 310 310 312 316 317 317 317 316 316 314 313 310 309 308 306 308 311 312 313 313 312 314 314 315 316 311 315 316 311 316 315 309 310 312 313 311 311 315 315 319 312 317 341 345 342 343 341 343 342 343 343 343 344 344 344
298 298 298 298 298 298 298 298 299 299 299 299 299 299 299 299 300 301 301 301 301 301 301 302 304 305 306 308 309 310 312 313 314 314 312 310 313 316 316 316 316 315 314 313 311 309 309 307 307 309 310 312 312 312 314 316 319 320 313 314 318 313 313 315 311 309 308 312 311 311 314 315 318 311 316 341 346 342 343 341 343 342 341 342 342 343 343 343
298 298 298 298 298 298 298 298 299 299 299 299 299 299 299 301 303 303 304 304 302 302 301 305 308 308 308 309 310 310 313 315 315 315 314 312 311 312 314 315 314 315 315 313 312 309 309 309 309 312 313 312 314 314 314 316 318 321 316 314 318 315 312 313 313 310 307 311 313 312 313 314 318 311 313 338 346 341 342 341 342 343 341 342 342 342 342 343
298 298 298 298 298 298 298 298 299 299 299 299 299 300 302 304 306 307 308 308 307 305 305 307 308 308 309 309 309 311 314 315 314 314 314 314 312 310 312 313 313 316 315 313 312 311 310 309 310 316 316 311 312 314 316 319 320 318 315 314 317 316 313 312 313 312 310 313 313 313 314 314 318 313 310 327 344 342 342 341 341 342 342 342 342 341 342 342
297 298 298 298 297 297 298 298 298 299 299 298 299 304 306 306 307 309 310 309 308 309 311 311 308 308 310 311 310 312 313 312 313 313 313 314 313 311 311 311 314 315 313 313 312 310 310 310 311 315 315 313 314 314 315 319 319 315 313 314 316 314 312 311 312 312 311 312 313 313 315 315 316 316 310 316 338 343 341 342 342 342 342 342 342 342 342 342
297 297 297 297 297 297 298 298 298 299 299 299 302 307 307 306 308 311 310 308 308 309 309 310 309 309 311 311 311 312 312 311 311 312 313 315 313 311 311 312 314 314 313 316 315 310 311 314 314 314 315 318 320 318 316 316 313 312 312 313 313 312 311 310 311 313 311 311 317 316 316 317 316 318 313 310 329 342 340 340 340 341 342 342 342 342 342 342
297 297 297 297 297 297 297 298 298 299 299 299 303 307 308 308 311 311 309 308 308 308 307 308 308 309 309 309 310 310 310 310 310 311 312 314 314 313 313 313 315 316 314 313 313 311 311 315 316 316 319 323 326 322 317 314 312 311 313 313 313 312 311 310 310 312 311 312 319 319 315 316 316 317 314 311 325 338 338 338 338 340 342 341 342 342 341 342
297 297 297 297 297 297 298 298 298 299 299 299 304 307 307 309 311 310 308 308 309 308 308 308 308 308 307 306 308 308 309 310 309 311 311 312 314 314 313 314 316 319 315 311 313 313 312 315 315 314 318 321 322 322 318 314 314 313 313 313 314 313 312 312 312 313 313 313 320 321 315 315 315 315 315 313 321 331 333 336 337 338 340 340 341 342 341 341
297 297 297 297 297 297 297 298 298 299 299 301 305 306 305 308 311 309 308 309 310 309 308 309 308 308 308 307 309 309 309 310 309 310 311 312 314 314 312 314 315 317 315 314 317 315 315 317 313 311 315 315 315 318 317 314 314 315 314 313 313 312 312 314 316 317 316 314 317 317 315 316 316 316 317 312 313 318 324 331 335 336 339 339 340 341 341 340
297 297 297 297 297 297 298 298 298 300 301 303 306 306 305 306 309 309 309 310 311 310 308 309 309 308 309 309 309 309 309 309 309 309 310 312 314 313 312 313 314 314 314 315 317 316 316 314 310 311 314 314 313 314 315 312 315 319 317 313 313 312 311 313 314 315 318 319 317 315 318 324 321 320 322 316 311 312 316 326 333 334 337 339 340 340 339 339
296 297 297 297 297 297 297 298 300 301 301 303 305 305 304 304 306 308 309 311 313 312 310 310 310 310 309 309 309 309 309 309 309 309 310 312 313 313 312 312 313 314 313 314 314 315 315 311 310 313 314 312 313 315 316 315 315 319 319 315 313 312 313 313 311 313 318 321 318 314 321 331 327 322 321 319 316 312 313 324 333 334 336 338 338 339 338 338
296 297 297 296 297 297 298 300 302 300 300 302 304 305 305 304 306 308 310 315 318 316 313 311 311 311 310 310 309 309 310 310 309 308 309 311 313 313 313 312 312 314 313 313 313 314 314 310 310 314 315 313 313 314 316 316 314 315 319 318 313 311 312 313 312 313 318 321 318 315 318 323 323 320 318 319 324 322 320 328 334 334 336 337 337 338 337 337
297 297 297 297 297 297 298 301 300 299 302 305 306 305 304 304 306 307 311 316 318 316 313 311 310 310 310 310 310 309 310 310 310 309 309 310 313 314 314 313 312 312 311 312 315 315 313 312 312 313 314 313 313 313 314 314 314 315 319 319 315 312 313 313 312 314 319 320 321 322 319 316 320 321 318 320 330 334 329 330 335 335 335 336 337 337 336 336
297 297 297 297 297 297 298 299 299 299 302 304 305 305 305 305 306 310 312 311 311 312 313 311 310 309 309 310 310 309 310 311 311 311 309 310 312 313 314 314 313 313 311 313 317 315 313 314 314 313 313 313 313 314 314 312 312 316 319 317 314 313 313 313 314 317 318 316 319 324 318 313 323 328 324 326 333 336 333 331 334 336 335 335 336 336 336 336
297 297 297 297 297 298 298 298 299 299 300 303 305 305 304 304 306 310 312 310 308 311 311 310 310 308 309 311 311 310 310 311 312 312 310 311 313 313 314 313 312 313 310 312 317 315 313 313 312 312 313 313 314 314 313 313 312 315 317 314 313 315 316 315 316 317 316 315 317 322 319 314 322 333 334 335 334 330 331 332 333 336 335 335 336 335 335 335
297 297 297 297 298 298 298 299 299 299 301 303 305 305 303 307 312 311 310 310 311 311 309 308 308 306 308 310 310 311 310 310 312 312 311 312 313 313 313 311 311 314 313 312 314 314 312 310 309 311 312 312 313 311 310 312 312 311 313 313 314 318 319 320 323 319 315 317 318 319 322 316 318 331 334 333 330 324 325 330 334 336 335 335 335 334 335 335
297 297 297 298 298 299 299 300 300 300 302 304 305 304 304 308 315 314 310 310 311 310 308 306 306 306 305 305 308 311 310 310 311 311 312 313 313 312 313 313 312 314 316 313 313 314 312 310 311 312 311 310 311 310 309 309 309 310 315 316 315 319 319 319 325 322 315 319 321 319 320 315 316 329 330 326 326 323 323 326 332 335 335 335 335 334 335 335
297 297 298 299 299 301 303 304 303 301 302 304 304 304 307 307 309 313 313 311 310 310 308 305 305 306 305 304 307 311 312 311 312 312 312 313 314 314 314 316 316 315 317 317 317 317 315 313 312 312 312 311 311 313 311 309 308 310 316 317 315 317 317 317 322 320 317 321 320 317 317 315 319 328 327 324 325 325 324 324 329 334 335 335 334 334 335 336
297 299 299 300 301 304 306 306 305 302 301 303 303 306 311 310 307 310 312 310 309 308 306 306 306 305 305 306 309 312 312 313 313 313 313 313 315 313 313 316 318 317 320 319 316 317 318 317 313 311 313 312 311 314 314 313 311 310 313 316 317 317 316 319 321 318 318 319 316 314 316 318 324 326 324 325 326 328 327 324 328 333 334 335 334 334 335 335
298 300 300 301 305 306 306 304 303 303 301 302 305 307 307 306 308 310 310 311 311 307 306 306 305 305 307 308 309 311 313 315 314 313 314 314 315 315 314 313 314 317 319 317 315 316 319 319 317 314 313 312 311 312 314 316 314 310 312 314 316 321 321 321 322 318 317 319 317 317 316 319 328 328 324 327 328 330 330 326 328 333 334 335 334 334 335 334
300 302 300 303 308 307 305 302 301 302 300 302 309 308 306 306 308 310 310 310 309 307 306 306 304 307 311 311 309 309 312 316 317 317 317 315 316 319 318 314 313 316 318 317 317 315 314 318 320 314 310 310 312 312 313 315 315 311 312 313 314 320 324 320 319 320 320 321 320 320 320 321 328 327 323 327 330 330 332 330 330 333 333 334 334 333 334 333
303 304 302 306 310 308 305 302 300 301 300 305 310 308 310 310 306 307 310 308 306 305 306 308 307 308 311 312 311 308 310 317 319 320 320 316 315 318 318 315 314 314 316 319 319 316 312 317 320 314 311 313 313 313 312 313 317 315 312 314 314 314 320 320 316 316 318 319 319 322 326 328 330 328 324 327 331 330 331 332 332 332 332 332 330 329 329 329
306 307 305 307 310 310 307 305 304 303 301 306 310 308 311 310 304 307 310 306 306 306 305 309 311 307 307 311 312 309 311 317 318 318 321 320 318 318 318 316 314 312 314 317 319 317 315 318 321 315 314 314 310 310 312 310 314 317 315 316 314 311 318 324 323 321 319 318 322 324 328 331 331 332 328 326 331 331 330 331 331 330 329 328 326 325 325 326
309 310 307 308 312 311 309 308 308 306 304 310 315 311 310 308 303 306 307 305 308 307 304 308 310 308 307 309 313 313 312 314 316 319 323 321 319 319 320 319 316 314 312 311 315 317 313 317 324 318 312 314 313 311 314 312 310 316 318 315 315 317 321 320 321 324 320 318 325 325 324 327 331 334 331 328 330 330 328 328 328 327 326 326 325 325 325 324
310 313 310 309 312 312 311 311 310 308 307 311 316 312 307 307 307 306 308 308 307 307 307 308 308 309 310 310 312 314 313 312 314 318 319 318 318 318 320 321 317 314 311 308 315 319 314 315 323 320 311 312 317 317 321 321 313 311 314 313 316 324 325 319 319 322 320 321 328 327 325 329 333 330 328 328 327 328 328 327 326 326 326 325 325 325 326 325
309 313 312 311 313 312 311 312 311 311 311 310 312 311 306 308 310 308 309 310 307 308 311 309 307 310 312 312 311 311 312 314 316 318 317 318 319 318 319 320 319 317 313 312 317 321 317 313 319 326 319 314 319 319 320 322 317 313 314 315 318 321 319 319 318 318 320 325 327 326 329 333 331 324 323 325 325 326 328 327 325 325 325 325 325 324 324 324
310 314 314 312 313 313 312 313 311 311 313 311 310 311 310 310 311 310 310 310 309 309 311 310 309 311 311 312 311 310 311 314 317 319 318 317 318 319 318 317 318 318 317 319 321 320 319 317 318 325 324 319 320 318 316 317 316 319 324 323 324 323 320 321 319 317 321 325 325 328 335 335 326 321 322 324 324 325 326 325 324 324 325 325 324 324 324 324
312 314 313 312 313 313 312 313 309 308 313 314 311 311 310 311 311 310 309 309 309 309 309 309 310 311 311 311 310 310 310 311 315 318 318 317 318 318 316 315 315 316 319 322 320 318 321 322 319 321 322 319 317 316 316 316 315 321 326 325 325 326 325 326 324 322 320 319 320 324 330 329 322 320 323 322 322 323 323 323 323 323 324 324 324 325 325 326
312 312 313 313 313 313 312 313 312 311 314 313 310 309 309 309 310 309 309 309 309 309 309 309 309 308 310 309 309 311 311 310 314 317 317 317 317 316 314 314 315 316 319 321 320 320 323 322 319 323 325 324 322 319 316 315 318 322 323 322 323 325 327 329 328 327 325 324 324 323 324 327 323 320 321 320 321 322 322 322 322 321 322 323 324 325 325 325
311 312 314 314 314 313 312 312 312 314 314 312 311 311 309 308 309 309 309 309 310 309 310 311 309 308 309 310 310 313 313 310 312 315 316 316 316 314 313 315 317 319 320 319 319 321 322 321 319 321 324 324 325 324 320 319 322 323 321 322 322 322 324 324 320 321 323 324 324 325 328 329 323 320 320 320 320 320 319 320 320 319 320 320 321 321 321 322
311 312 312 313 314 313 311 311 310 313 314 312 312 312 310 309 309 308 309 309 308 307 310 311 309 308 310 311 312 314 314 311 311 314 315 316 315 314 314 316 318 321 321 319 318 319 322 321 319 321 323 324 324 325 323 321 320 319 320 322 322 320 321 321 320 320 320 318 320 326 331 327 322 322 321 320 320 319 317 317 317 317 318 320 322 321 320 320
312 312 311 311 312 311 309 309 309 311 312 312 311 310 310 311 309 306 308 309 307 307 308 307 307 309 311 312 316 317 315 314 314 314 313 315 315 314 313 315 316 319 322 318 314 320 323 319 318 321 322 323 324 321 317 318 320 320 322 324 323 321 320 324 327 325 321 320 322 326 327 325 324 324 323 321 319 318 317 316 315 313 313 317 319 318 318 318
310 311 310 310 309 308 308 307 307 308 308 309 310 308 308 311 310 307 308 308 307 307 307 306 307 309 309 311 315 315 314 314 315 313 312 312 314 313 311 313 314 315 319 317 313 322 327 320 316 318 317 315 318 317 314 317 320 319 320 322 322 320 322 330 332 324 321 324 324 323 322 323 325 324 323 321 318 317 316 314 312 310 309 311 313 313 315 316
308 308 307 308 308 308 308 306 306 309 308 307 309 308 308 310 310 308 308 308 308 307 308 309 308 307 308 308 309 311 312 313 312 311 311 311 313 313 313 314 313 310 316 319 316 322 329 322 316 317 316 314 316 316 316 318 317 313 313 315 316 317 321 329 329 320 320 325 323 321 322 324 325 324 322 319 317 316 314 311 311 310 308 309 309 309 311 312
307 307 307 307 307 306 307 306 304 307 309 308 309 308 308 309 308 307 307 309 311 308 307 310 309 307 308 308 308 309 310 311 309 309 310 309 310 312 313 315 313 308 314 322 319 318 323 321 317 318 318 316 316 316 316 317 317 314 311 310 311 314 317 319 319 317 319 323 321 321 324 323 322 322 319 315 313 312 310 310 309 308 307 307 307 306 306 307
307 308 307 308 307 305 306 305 303 307 308 306 307 307 306 307 307 306 306 307 309 308 306 307 307 307 309 309 308 308 307 308 308 307 307 308 310 312 312 312 312 309 313 322 321 317 319 318 316 319 320 317 316 317 317 318 319 318 314 309 309 314 317 317 318 318 320 322 321 321 324 321 317 316 314 311 310 309 308 308 307 306 306 305 305 304 304 305
308 308 308 309 308 304 304 303 302 308 310 306 307 308 307 307 305 305 306 306 306 308 306 305 306 308 310 309 308 307 306 307 307 306 306 306 307 310 311 311 311 310 313 320 321 320 322 318 315 320 323 319 316 316 318 319 320 320 317 311 309 312 315 314 315 316 318 321 322 323 324 320 315 312 311 309 308 307 306 306 305 305 305 304 303 303 303 304
308 308 308 308 307 303 302 303 303 307 307 304 305 307 306 306 303 303 306 306 304 306 305 304 305 306 308 307 308 306 303 303 305 304 304 305 304 305 306 308 308 308 311 318 320 319 321 320 317 320 324 319 315 316 318 319 321 320 314 309 309 310 311 312 313 312 313 317 321 322 321 317 313 311 310 308 306 305 304 304 304 304 303 303 303 302 302 303
Wind_Speed
7 8 8 8 9 9 10 10 10 10 10 9 10 10 10 11 11 11 11 11 11 11 12 13 13 14 14 16 18 19 20 20 19 20 17 9 7 8 8 7 7 8 9 10 11 11 11 12 13 13 12 11 9 11 11 8 9 6 3 3 2 4 4 4 6 5 3 4 7 12 16 7 9 17 9 4 6 5 5 6 7 7 4 12 12 20 35 30
7 8 8 8 9 9 10 10 10 10 11 10 10 11 11 11 11 11 11 11 11 12 12 13 14 14 15 16 18 20 20 21 21 17 9 3 3 5 6 8 8 8 9 10 10 10 10 12 14 14 12 10 8 10 10 8 8 4 3 2 5 4 5 5 5 3 3 6 11 14 15 9 11 14 7 1 1 1 1 5 7 8 10 15 14 26 34 29
8 8 9 9 9 9 10 10 11 11 12 12 11 11 11 12 12 12 12 12 12 12 13 13 14 15 16 16 18 19 20 22 17 6 3 3 4 5 4 6 8 7 6 7 7 8 8 9 13 14 12 9 8 10 10 8 7 4 4 2 7 5 4 6 5 8 10 11 11 13 14 14 15 14 7 2 3 2 3 5 8 12 18 19 23 32 33 31
8 9 9 10 10 10 11 11 11 12 12 12 12 12 12 12 13 13 12 12 12 13 13 14 14 15 15 16 17 17 19 18 7 5 4 4 5 6 4 2 6 4 6 8 7 8 8 8 12 14 12 7 6 9 7 8 7 4 5 5 5 3 2 6 7 11 15 14 10 12 14 14 14 13 7 3 5 3 8 14 12 16 25 25 30 35 33 34
9 9 10 10 11 11 11 12 12 12 13 13 13 13 13 13 13 13 13 13 13 13 14 14 15 15 15 15 15 15 15 8 3 5 2 3 5 6 4 2 4 5 8 9 9 10 9 9 13 13 9 4 5 6 3 9 8 2 7 10 5 2 3 6 11 15 18 16 12 11 9 11 13 13 10 3 6 5 7 16 16 19 28 29 34 36 32 35
10 10 10 11 11 11 12 12 13 13 13 13 13 14 14 14 14 14 14 14 14 14 14 15 15 15 15 15 15 13 9 2 1 2 4 4 4 4 4 3 3 4 7 8 10 12 11 12 14 12 7 3 4 4 3 9 8 2 7 9 8 9 6 9 16 19 20 15 11 11 9 13 12 12 13 8 12 12 9 10 15 19 26 30 35 36 34 37
11 11 11 11 11 12 12 12 13 13 13 14 14 14 14 14 15 15 15 15 15 15 15 15 16 16 15 15 14 11 8 8 6 6 8 5 2 2 3 3 3 3 6 8 10 12 14 15 15 11 7 3 3 4 4 5 6 5 6 3 6 11 10 14 18 20 22 16 16 18 14 13 9 8 10 9 16 19 13 8 14 20 25 30 34 35 35 37
11 11 11 11 11 12 12 13 13 13 14 14 14 14 14 14 14 15 15 15 15 15 15 15 15 16 16 15 13 11 13 11 6 6 7 4 4 3 3 3 2 2 4 7 9 12 15 15 15 12 5 2 5 6 4 2 2 6 6 4 6 11 12 15 17 19 23 21 20 16 12 15 11 7 7 10 16 17 13 8 14 22 27 30 31 31 33 34
11 11 11 11 11 12 12 13 13 13 14 14 14 14 14 14 14 15 15 15 15 15 16 15 15 16 16 15 12 10 11 7 3 5 6 4 6 4 3 2 1 2 3 6 8 11 15 16 16 12 5 5 6 4 5 3 3 6 7 7 7 11 14 15 15 18 20 19 16 8 11 14 7 3 7 12 14 11 10 10 18 24 28 30 28 29 32 34
11 11 11 11 12 12 13 13 13 14 14 14 14 14 14 14 15 15 15 15 15 15 16 16 16 15 16 15 8 4 7 6 4 4 3 4 6 4 3 3 2 3 4 6 8 11 14 15 17 12 4 5 6 3 5 5 5 6 7 9 10 13 15 12 11 17 17 15 14 7 11 10 2 2 5 10 10 9 12 16 20 24 27 29 28 29 32 34
12 12 12 12 12 13 13 13 14 14 14 14 14 14 14 14 15 15 15 15 15 15 16 16 16 16 16 14 7 5 7 7 4 4 3 5 6 4 3 3 4 4 5 6 7 9 12 13 15 11 2 3 4 2 4 4 6 9 9 8 10 10 11 9 9 16 11 9 13 8 8 8 2 4 7 10 10 12 17 19 20 24 26 27 28 29 31 33
12 13 13 13 14 14 14 15 15 15 15 15 15 15 15 15 15 15 15 15 15 15 15 16 16 16 16 16 15 9 7 7 6 6 5 6 6 4 3 5 5 5 5 6 6 7 10 12 13 11 4 3 2 1 2 5 5 9 7 4 7 7 7 7 8 11 5 5 11 4 4 9 2 6 8 11 14 15 17 19 21 24 27 28 28 30 32 33
14 14 14 14 14 15 15 16 16 16 16 15 15 15 15 15 15 16 16 16 16 15 16 16 15 16 15 16 15 8 8 12 12 12 9 8 9 8 6 6 6 5 4 5 5 6 7 11 14 12 4 3 2 1 4 7 6 6 3 1 4 7 5 6 3 4 1 5 9 4 3 8 7 9 6 13 19 19 18 18 21 24 27 29 30 32 33 35
14 15 15 15 15 15 16 16 16 16 16 16 16 16 16 16 16 17 17 17 16 15 16 15 15 16 14 17 17 14 15 16 16 15 12 11 11 11 10 8 6 5 5 4 4 4 3 11 15 10 5 3 3 4 6 6 3 3 2 1 2 2 4 9 5 1 1 5 6 6 3 6 9 10 4 16 21 23 20 19 20 23 28 30 31 33 34 37
15 16 16 15 15 15 15 16 16 16 16 16 16 16 16 16 17 17 17 17 16 15 16 15 15 13 14 20 19 13 11 9 9 8 11 16 14 12 11 9 6 5 5 5 3 2 2 10 14 7 5 5 4 4 4 4 3 2 1 3 3 1 4 10 7 1 1 5 1 6 2 5 9 8 5 18 21 22 20 20 21 23 27 30 31 33 35 37
16 16 16 16 15 15 15 16 16 16 16 15 15 16 16 16 17 17 17 16 15 14 13 12 11 8 9 13 9 4 5 5 4 3 4 14 17 15 11 9 7 5 6 5 3 1 3 8 10 6 5 3 1 1 3 4 4 3 1 2 4 1 2 5 5 3 1 2 3 2 2 4 7 5 5 17 21 19 17 18 22 23 25 29 32 34 35 35
16 16 16 16 16 16 16 15 15 15 15 15 14 14 15 15 14 14 12 11 11 11 10 8 6 6 9 9 6 4 1 4 4 4 4 5 15 19 13 11 9 7 6 5 4 3 4 6 6 4 3 0 2 3 2 2 3 3 2 0 3 3 2 2 4 6 6 4 4 4 1 5 9 8 2 17 22 18 16 18 22 23 25 28 30 32 33 30
16 16 16 16 16 16 16 15 15 15 14 14 13 12 12 11 11 9 7 5 5 4 6 6 2 3 8 9 6 4 3 1 4 4 6 5 11 19 17 13 10 8 4 2 4 5 6 5 2 1 1 1 3 4 3 4 3 2 1 0 3 3 3 3 3 5 7 6 5 6 4 7 11 10 3 15 21 19 18 21 23 23 25 26 28 31 28 23
17 16 16 16 16 16 16 15 15 15 14 12 11 9 7 8 8 5 3 4 3 3 3 6 7 3 6 5 4 5 6 9 9 9 7 3 9 17 19 13 8 6 3 3 2 6 7 2 3 1 2 2 4 5 6 7 6 6 4 3 3 4 5 5 4 5 4 5 6 6 6 7 9 10 5 12 21 21 21 20 20 21 23 25 26 27 23 20
17 16 16 16 16 16 15 15 15 15 14 10 8 6 5 7 5 1 6 12 13 12 12 13 14 15 17 17 14 12 14 13 11 7 2 2 10 16 18 12 6 4 3 4 3 4 8 4 1 4 5 5 6 7 7 5 5 5 3 2 4 5 6 2 3 6 2 0 7 6 6 7 8 10 7 12 18 18 17 15 17 21 22 25 25 23 22 22
16 16 16 16 15 15 14 14 14 14 12 9 6 4 5 6 3 3 11 16 17 17 19 20 21 23 27 27 24 21 17 14 13 9 4 3 9 13 13 10 5 2 3 3 3 2 6 5 5 6 8 7 6 6 6 5 3 2 2 3 4 5 6 3 3 7 3 3 6 3 3 8 10 10 7 9 11 13 18 17 19 24 24 24 24 22 21 22
16 16 16 16 15 14 14 14 13 12 11 6 3 4 4 5 3 6 9 12 19 19 18 20 21 26 30 31 29 24 14 11 15 16 10 7 11 12 10 8 5 3 2 3 3 1 2 3 7 7 8 6 4 5 6 4 3 2 2 1 4 4 4 5 4 4 1 3 4 4 5 9 12 11 7 7 10 16 27 29 28 31 27 24 24 25 25 24
16 16 16 16 14 14 13 13 12 11 8 4 1 2 1 3 5 8 7 9 16 17 14 16 19 25 30 28 24 19 12 10 14 17 11 10 15 14 11 7 5 4 3 3 5 3 2 5 7 7 7 6 3 3 7 4 1 2 3 2 5 2 1 4 4 4 3 2 5 6 6 7 9 8 6 9 13 18 28 31 30 31 29 27 28 30 31 29
16 16 16 15 14 13 12 12 10 7 5 2 1 0 1 4 6 9 7 7 9 10 10 10 12 19 24 19 14 14 16 14 13 14 13 14 16 13 10 7 5 4 3 5 7 5 5 6 4 6 6 7 4 2 6 3 2 3 5 5 5 3 4 7 4 5 6 4 4 2 4 6 5 5 6 7 9 14 20 20 17 19 23 25 26 30 32 32
16 16 16 15 14 12 11 11 7 3 4 2 2 2 3 4 7 10 6 3 5 6 5 5 6 10 11 7 8 12 12 13 19 19 15 18 18 11 6 7 6 4 7 6 6 4 7 7 5 6 3 5 5 3 4 6 3 4 5 9 9 7 8 9 3 4 5 5 3 1 3 5 4 3 6 6 6 9 9 8 10 16 22 25 27 30 31 32
16 16 15 14 13 12 9 6 4 4 4 2 3 3 2 4 6 8 3 3 4 5 2 1 2 4 4 5 11 11 4 7 18 21 16 17 21 14 5 5 4 4 7 5 4 3 3 4 7 7 5 5 4 4 5 7 4 3 5 10 11 9 8 8 2 2 0 3 3 3 4 5 6 5 6 6 5 7 4 3 9 17 25 29 30 31 32 32
16 16 15 13 12 12 8 4 4 6 3 3 3 3 3 4 4 5 3 4 4 4 1 1 0 6 6 5 13 12 2 3 6 15 23 21 20 18 8 3 3 2 4 4 1 3 2 5 5 5 5 5 3 4 5 8 7 3 5 7 9 8 8 6 4 4 4 3 4 3 4 3 5 4 7 6 4 6 5 1 7 16 25 30 31 31 33 34
15 16 15 12 11 12 10 6 5 5 4 5 3 3 4 4 3 1 3 3 2 1 3 2 2 7 7 4 16 12 2 3 1 7 22 23 19 15 7 6 7 5 5 6 3 4 3 6 7 6 5 4 5 5 7 9 5 6 6 6 7 7 7 5 6 4 3 1 5 5 2 2 5 5 6 4 3 5 5 2 4 13 23 28 30 31 32 33
15 15 15 12 10 10 9 8 6 4 6 5 2 4 5 3 1 2 4 1 2 3 5 2 3 7 5 5 15 12 6 4 3 2 15 20 17 10 4 9 8 4 5 6 5 5 2 5 9 8 5 5 7 6 9 11 6 5 5 5 3 3 3 4 5 4 1 1 5 6 2 2 4 5 5 4 3 4 5 3 4 12 18 24 28 30 31 32
14 14 14 12 10 9 8 8 6 5 4 2 1 3 5 4 2 4 2 3 2 5 8 3 2 6 3 3 5 10 6 5 4 5 11 11 12 8 4 7 6 5 2 2 3 4 1 1 4 6 6 7 7 5 9 13 8 2 4 4 4 4 3 3 2 3 3 2 6 7 6 4 3 5 4 2 2 4 5 4 5 11 16 22 27 30 33 35
13 13 12 12 10 8 8 6 5 4 4 3 1 2 6 4 3 4 2 3 2 5 8 4 4 7 5 2 4 5 5 3 1 7 8 4 6 5 3 3 3 4 1 4 3 3 3 0 1 5 10 7 4 3 6 8 5 3 3 3 3 2 3 4 4 3 3 5 7 5 5 5 3 5 4 4 6 6 5 6 8 11 15 21 26 30 35 38
12 11 10 11 9 8 7 6 5 5 5 3 1 4 7 2 2 2 3 4 2 3 5 3 4 7 8 4 2 4 2 3 3 5 4 3 5 5 3 4 4 2 2 4 3 4 3 4 3 4 9 8 5 2 3 2 1 4 3 4 3 1 2 2 3 0 2 6 5 3 4 3 4 6 4 6 9 7 7 8 11 12 15 20 25 30 35 39
10 9 9 8 6 4 5 6 5 4 5 3 2 4 5 4 2 4 3 3 1 3 4 4 6 8 7 5 3 3 1 1 2 3 2 2 3 4 2 1 5 5 1 3 2 2 3 5 3 1 4 7 9 4 2 1 3 5 5 5 4 2 2 1 3 1 3 5 3 3 3 1 4 4 4 7 10 10 12 13 15 15 16 20 23 28 34 38
8 8 7 4 2 2 3 5 3 3 5 5 4 4 5 2 4 2 2 2 2 4 4 3 7 8 4 2 3 3 2 2 0 4 3 2 3 3 2 2 4 5 3 2 2 3 1 4 3 4 1 4 8 7 6 4 4 4 4 5 4 4 4 3 3 3 4 4 3 2 2 2 2 3 4 6 8 9 9 7 13 13 14 17 20 26 31 34
6 7 3 4 2 2 3 2 1 4 6 7 5 5 4 3 3 1 0 3 2 4 6 6 4 4 4 2 3 3 1 1 2 3 3 3 4 4 4 4 4 3 4 3 2 2 3 4 7 4 1 3 4 6 5 6 3 2 3 5 2 4 5 2 3 4 3 1 2 2 2 3 3 4 4 5 6 4 3 3 9 8 9 11 15 19 23 28
4 4 4 7 3 4 5 4 4 6 9 8 5 3 3 3 1 2 1 2 1 3 6 7 3 3 5 4 3 6 3 0 2 3 1 1 2 4 4 4 4 5 5 4 3 1 2 4 6 4 3 4 5 5 5 5 3 1 2 3 3 4 7 4 2 0 3 1 2 1 2 4 3 3 4 4 5 3 3 3 6 5 3 5 8 7 2 7
3 2 6 7 3 4 6 7 6 6 8 6 5 2 4 2 3 4 0 2 3 3 2 3 3 2 3 3 3 6 5 2 2 1 1 2 2 3 2 2 3 6 7 5 2 3 3 3 6 3 4 5 3 3 1 2 5 4 3 5 2 2 4 4 2 2 3 1 4 1 1 3 1 1 3 3 3 4 5 3 6 8 9 10 13 18 18 13
1 3 7 7 5 3 5 6 6 5 5 4 3 2 2 1 3 4 2 3 2 1 2 1 2 1 2 2 4 5 4 2 2 1 2 1 2 3 2 1 1 4 9 8 3 2 3 2 6 3 4 6 4 1 2 4 1 3 4 4 3 2 0 1 2 1 1 2 3 3 2 2 3 3 2 1 1 4 6 6 7 7 8 11 14 15 14 12
3 5 5 7 7 4 4 3 3 3 3 4 1 2 1 2 3 4 6 5 0 1 1 2 2 2 2 2 4 4 3 1 0 0 1 1 2 2 1 1 1 1 5 9 6 2 2 0 5 4 4 4 5 3 1 3 3 2 2 2 2 3 4 2 2 3 3 2 2 2 3 2 4 4 3 1 3 5 5 5 7 7 8 10 13 16 14 9
3 4 4 6 8 5 3 1 3 3 3 2 2 2 1 2 3 6 9 6 2 1 1 3 2 2 3 3 3 3 2 1 2 1 1 1 1 0 2 2 1 2 2 5 4 1 3 2 3 5 5 2 2 2 2 3 2 1 2 2 1 1 2 2 1 1 3 3 2 1 1 5 5 2 2 1 4 6 5 5 6 7 10 10 9 11 10 7
5 4 3 6 8 7 3 1 2 3 3 1 2 1 1 2 2 6 9 6 4 4 4 3 2 2 3 2 3 2 2 1 0 1 1 1 0 1 3 3 1 1 3 4 3 2 2 2 2 2 5 2 3 5 1 1 2 3 4 4 3 3 4 2 1 1 2 3 3 4 2 6 4 1 1 3 5 6 8 9 6 8 12 13 11 9 7 5
5 3 3 7 9 8 3 1 1 2 2 1 2 2 3 3 2 4 6 4 3 4 2 2 2 3 3 2 3 2 2 2 1 1 1 1 1 2 4 5 1 2 2 1 1 1 3 3 2 1 2 3 7 7 2 2 1 1 1 3 4 3 4 4 3 3 2 2 2 3 1 5 3 0 1 4 6 8 11 12 10 12 15 15 11 7 7 8
5 4 5 8 10 8 2 2 3 2 0 2 3 3 3 2 1 2 3 2 1 1 1 1 1 1 2 2 1 2 2 1 1 1 0 1 1 2 7 6 1 3 3 2 2 1 2 3 1 2 4 4 6 6 4 3 4 3 3 2 2 2 3 5 5 4 3 3 2 2 1 5 2 2 2 4 8 11 12 13 14 14 13 13 12 9 9 10
8 7 6 8 11 7 1 0 1 2 3 3 3 3 3 2 2 2 2 2 2 0 0 1 1 1 2 2 1 1 2 0 1 2 1 1 2 7 12 8 2 2 1 2 2 1 1 1 1 1 3 4 5 5 5 5 4 2 2 4 3 1 4 4 2 3 2 3 4 4 3 4 1 3 2 4 7 9 9 11 14 15 14 16 15 12 11 12
8 6 4 7 10 5 2 2 3 1 1 2 3 4 4 1 2 3 2 3 3 1 1 2 2 1 1 2 2 2 2 0 0 2 2 2 3 7 14 12 5 3 2 2 4 4 3 1 2 3 3 3 2 2 3 2 2 1 2 5 5 2 3 4 3 4 1 3 2 4 4 3 3 5 4 4 7 8 8 9 13 15 16 17 15 12 11 12
5 2 2 3 6 5 2 1 3 2 1 1 1 2 2 1 4 5 1 1 4 4 1 2 3 2 3 4 3 3 3 2 1 2 3 3 2 3 11 12 9 7 4 6 6 4 4 2 2 4 4 5 5 5 5 2 2 1 4 6 6 5 2 3 5 3 3 2 1 3 4 3 5 6 5 5 6 7 6 7 10 13 15 16 15 13 13 15
3 1 2 3 2 1 1 1 3 2 1 2 1 2 2 2 4 4 2 0 3 5 2 2 4 3 2 4 3 2 4 4 4 4 3 4 2 4 10 8 10 12 6 4 6 3 4 3 2 5 4 1 3 4 4 1 4 2 3 6 7 8 6 4 4 3 4 4 2 5 3 6 6 6 6 6 6 6 5 7 10 12 15 18 18 18 18 19
2 2 3 4 2 1 1 1 2 4 3 2 1 1 2 3 3 2 2 2 4 5 3 2 5 4 2 3 0 2 4 4 4 3 3 4 3 5 8 5 6 14 9 3 5 3 5 2 1 4 4 4 4 4 3 4 4 4 5 5 7 8 6 4 2 2 4 5 3 3 4 5 5 7 7 6 7 8 7 10 12 14 16 18 19 19 20 21
4 4 4 4 3 2 3 2 3 6 4 2 2 1 1 2 3 2 2 2 4 5 3 1 4 4 3 2 2 1 3 2 3 3 2 4 3 2 5 4 6 13 10 3 3 3 4 3 1 3 3 5 6 6 4 5 4 3 6 7 7 7 6 6 2 1 3 4 4 5 7 4 1 4 7 8 12 13 13 14 15 16 17 18 20 21 21 21
4 4 4 6 5 4 3 3 3 4 3 3 2 1 0 1 3 4 2 1 1 3 2 2 5 5 1 4 4 2 1 3 2 3 1 2 2 1 1 2 5 10 10 3 2 3 3 2 1 3 3 4 6 6 5 5 5 4 7 9 10 9 7 6 4 2 2 4 6 8 7 3 4 4 10 12 14 15 14 14 16 16 16 18 21 23 23 23
5 5 6 7 4 5 4 3 3 3 3 3 1 2 1 0 2 3 3 2 3 1 1 1 5 4 2 4 3 3 2 3 5 7 5 3 2 2 2 3 2 4 7 4 2 3 3 3 1 3 3 2 4 5 5 4 5 5 7 11 11 7 4 4 3 3 3 2 7 8 5 1 2 6 11 12 12 13 12 12 15 16 17 20 22 23 23 23
5 6 8 8 3 4 3 2 3 3 1 1 2 2 2 2 3 2 1 3 2 1 2 2 1 1 3 3 2 7 10 9 10 13 12 9 8 7 7 7 4 3 3 3 2 2 2 3 2 3 2 2 3 4 5 4 3 2 4 7 7 4 3 4 3 4 6 1 4 4 3 4 4 7 10 9 10 11 12 13 15 18 20 22 22 22 21 22
Wind_Direction
332 333 333 332 332 331 329 328 328 328 329 328 331 330 329 328 326 328 328 329 325 321 318 314 314 310 309 310 310 314 317 318 316 314 311 314 312 284 264 253 245 239 234 222 210 202 197 192 187 185 179 164 156 162 158 147 142 144 111 115 218 209 196 189 184 197 215 301 309 323 345 355 323 339 359 98 98 93 132 116 138 182 217 183 184 172 165 164
326 328 327 328 327 326 325 323 323 323 322 321 323 324 326 326 324 325 325 326 326 326 324 322 318 312 311 311 312 318 321 321 319 318 319 334 333 309 270 240 240 243 233 223 216 210 204 199 192 185 175 158 150 162 170 172 162 156 101 151 229 201 203 201 192 252 290 293 301 311 332 336 317 326 319 222 97 351 103 103 117 120 139 165 171 167 166 166
323 323 323 325 324 324 322 320 322 321 319 318 317 319 321 322 322 323 322 321 322 323 323 322 320 318 317 312 315 321 325 326 326 342 84 49 5 341 305 234 232 240 226 222 217 210 211 205 196 184 168 154 153 164 175 180 184 196 127 198 243 200 220 254 256 274 286 289 298 311 321 323 323 326 308 207 148 264 243 169 140 135 146 159 166 166 168 168
320 319 320 321 321 321 319 319 319 317 318 317 316 317 317 319 320 319 320 320 320 319 320 321 320 323 319 316 319 323 330 333 349 96 97 25 16 358 348 201 211 209 193 205 203 201 205 194 190 182 167 154 157 166 174 179 183 192 171 212 227 165 232 278 291 289 296 299 293 302 315 319 326 332 317 151 143 260 235 206 188 170 164 160 164 167 169 171
318 317 318 318 318 318 317 317 316 315 314 314 315 315 315 317 316 316 318 319 320 319 319 319 321 325 321 321 322 324 337 346 85 95 54 359 8 5 18 132 174 185 191 201 199 196 194 181 176 170 164 150 153 163 177 184 176 173 229 242 246 263 281 294 307 302 299 299 298 302 315 309 312 320 306 222 189 242 249 219 204 187 176 166 167 168 169 173
319 319 319 318 318 317 316 316 315 314 313 313 313 313 314 313 313 314 314 316 317 317 318 319 321 323 323 326 324 326 338 297 244 308 268 307 345 25 53 121 159 192 200 203 202 192 182 171 168 162 151 133 157 168 179 188 188 230 257 258 261 265 263 283 294 296 296 296 299 294 294 301 306 312 296 253 230 253 297 250 206 187 178 172 171 170 173 177
321 321 321 320 320 318 318 316 315 315 314 313 312 312 312 310 312 311 311 314 313 314 316 316 318 319 322 326 326 327 305 278 301 279 252 276 282 101 85 134 155 207 213 213 207 191 181 170 168 160 131 120 175 182 198 196 197 226 263 293 279 269 259 276 286 291 295 289 287 291 294 295 286 301 293 255 252 258 284 275 202 179 172 171 171 172 177 179
322 321 320 320 318 317 317 315 315 316 315 315 314 314 312 310 309 307 308 309 310 312 312 313 315 315 319 322 327 325 300 294 310 255 243 248 210 161 111 143 163 218 224 225 217 198 185 172 170 163 140 178 165 170 202 222 224 225 251 285 284 275 267 279 289 290 293 288 290 296 285 283 280 281 269 257 266 259 261 250 187 172 170 173 172 174 177 179
322 320 319 317 315 315 314 314 314 314 316 315 317 316 314 313 310 308 306 305 307 308 308 310 311 313 315 316 326 323 301 303 311 252 249 232 198 172 157 166 195 242 235 223 216 203 190 182 179 169 170 192 162 167 173 163 246 226 233 258 267 271 278 286 288 288 292 289 292 298 277 289 310 285 262 267 270 249 231 198 172 168 169 173 173 176 178 182
320 318 316 314 313 312 311 312 311 313 315 315 316 316 315 313 312 310 306 305 305 303 306 306 307 311 309 310 326 327 302 304 295 270 252 207 184 166 172 193 270 270 252 232 220 212 206 201 189 169 153 175 168 193 156 165 247 257 254 262 262 269 281 283 279 284 290 289 282 265 270 287 76 149 257 266 256 211 188 168 167 170 170 175 175 178 182 189
319 317 314 312 310 310 309 308 309 311 312 313 314 312 313 313 312 311 307 305 303 303 304 301 304 306 304 304 285 266 298 297 278 281 247 184 166 150 165 217 272 266 261 258 248 235 221 210 188 170 160 174 170 206 190 217 259 278 285 281 277 280 287 270 257 275 280 286 276 243 263 292 130 184 240 240 219 191 178 163 167 173 173 179 179 182 187 194
321 319 315 312 310 308 307 307 307 308 309 310 310 310 311 311 310 308 307 305 303 305 301 300 301 300 303 295 274 270 296 287 274 268 235 192 179 182 199 226 254 256 266 274 281 269 228 203 184 182 188 165 163 30 252 282 293 286 290 284 297 330 317 272 247 267 255 254 274 236 288 307 226 215 234 214 194 182 177 166 168 174 177 181 181 186 191 196
322 320 318 315 312 309 308 306 306 306 307 307 307 308 308 307 307 305 304 302 303 304 299 298 297 299 301 284 275 285 288 278 271 256 228 206 204 209 222 227 241 253 264 275 290 294 238 198 187 195 194 138 180 328 309 311 315 293 286 191 317 353 327 293 278 285 268 246 256 195 268 293 260 259 227 190 186 176 172 172 174 177 180 183 185 189 193 198
321 320 319 317 316 313 310 308 306 306 305 306 307 307 305 304 303 300 299 298 300 299 297 296 294 298 290 276 286 293 283 276 267 254 228 215 210 213 224 220 231 248 253 274 284 313 271 199 195 206 227 235 269 315 323 324 334 305 295 258 354 9 282 304 317 310 0 276 235 168 223 273 271 290 211 186 188 177 173 177 180 183 185 187 188 192 198 202
320 319 319 319 319 316 314 311 308 307 306 307 309 307 304 303 300 297 295 294 295 295 293 293 292 296 289 287 294 291 288 291 281 269 230 219 212 213 221 214 228 252 254 272 260 312 7 192 201 215 236 258 297 330 340 345 2 13 308 300 341 128 263 308 318 1 291 286 173 137 227 275 273 297 184 187 189 180 179 180 185 189 189 190 192 197 202 206
319 318 319 319 320 317 315 313 311 310 309 311 313 308 305 303 300 297 294 292 290 286 284 286 288 296 295 296 301 289 318 352 6 12 240 222 211 212 216 216 232 245 247 257 230 209 92 174 203 223 238 266 292 95 22 350 340 3 69 267 299 275 282 317 318 338 345 285 8 70 242 288 280 302 167 185 191 185 183 186 190 191 192 194 196 201 205 209
318 318 318 319 319 318 316 316 314 313 314 317 316 312 310 307 305 302 298 292 282 274 274 275 290 297 274 266 272 273 306 46 41 34 351 259 218 213 212 219 230 232 235 241 232 196 158 178 198 223 242 307 115 114 54 300 290 325 9 279 267 259 265 311 296 324 22 48 3 357 248 255 270 297 169 187 195 191 190 197 197 195 195 197 200 205 208 208
317 317 317 318 318 317 318 317 315 315 319 324 324 322 317 310 312 314 314 307 277 266 275 251 213 317 272 253 249 236 202 293 320 302 322 309 220 210 212 222 231 229 218 198 221 185 177 199 161 142 317 76 117 118 161 225 206 205 225 87 284 285 240 219 254 306 8 21 346 340 297 258 267 287 254 198 199 197 202 203 201 200 198 199 203 207 208 202
316 315 315 316 317 318 318 317 315 317 323 332 336 334 328 324 324 326 348 329 253 211 271 224 187 209 260 255 234 230 263 287 300 296 298 284 208 206 209 217 225 215 166 120 194 174 167 155 83 149 248 176 176 164 183 201 164 160 174 167 221 278 263 215 223 270 338 355 313 298 270 266 275 283 271 208 202 206 214 210 204 205 202 201 205 207 205 198
314 314 314 315 317 318 319 317 315 319 327 340 353 354 1 358 350 326 312 297 270 255 262 246 235 250 262 266 265 271 283 288 291 285 282 193 200 202 204 207 204 189 158 147 181 173 159 152 182 204 192 178 201 197 179 173 144 141 168 204 226 252 274 238 226 257 218 263 281 263 254 272 273 277 267 211 203 211 219 213 209 208 203 202 202 200 199 201
313 313 313 315 316 319 318 315 315 320 328 339 9 38 43 30 28 318 312 298 283 272 267 262 256 259 265 267 267 274 286 291 280 249 210 213 198 193 200 194 163 189 227 159 139 122 135 171 223 205 185 179 188 180 153 143 137 136 196 277 275 246 266 271 245 257 198 167 260 275 308 289 272 274 265 207 194 214 217 209 210 211 205 202 196 186 189 199
313 311 312 314 316 320 316 314 316 320 326 330 21 68 64 40 13 320 313 293 292 290 276 269 258 255 260 262 261 265 276 284 271 252 236 223 203 192 188 173 155 191 228 109 114 87 104 219 225 198 183 159 116 122 128 135 153 140 141 255 275 256 286 296 280 283 126 149 259 305 320 287 277 276 261 202 189 215 219 212 211 210 201 195 188 182 188 194
312 310 312 314 317 319 314 313 316 316 324 322 19 82 64 356 337 321 303 273 292 298 280 264 252 252 256 258 257 251 239 241 254 256 241 201 196 196 178 163 169 166 136 139 161 163 198 242 218 184 162 140 119 121 119 106 116 158 157 193 265 266 357 290 295 324 323 240 250 285 303 281 282 294 283 232 218 229 230 220 216 212 201 193 189 187 191 194
310 309 312 317 319 318 314 313 311 310 319 309 240 176 295 302 316 324 307 264 289 299 284 272 257 259 261 263 259 230 221 228 234 243 229 193 183 187 187 175 147 150 191 181 169 178 224 236 177 133 144 160 187 175 135 154 272 249 206 206 246 245 209 238 281 337 324 305 241 248 326 300 292 317 307 273 247 248 241 224 212 206 197 188 186 190 194 196
309 309 313 321 319 317 317 311 304 295 303 297 230 242 278 292 308 325 323 294 301 288 291 293 260 272 274 259 227 208 213 229 230 228 215 196 186 173 177 176 148 192 214 166 145 197 246 238 156 122 143 168 180 218 186 179 226 295 236 211 222 223 227 242 280 14 357 334 288 86 25 299 305 313 289 305 307 281 256 213 181 177 177 176 179 186 193 195
308 309 317 323 318 317 318 307 293 295 296 259 211 230 267 291 310 327 344 41 325 275 321 338 254 334 337 204 191 182 183 252 240 228 209 202 198 181 156 164 159 208 197 148 140 215 249 205 165 156 162 154 167 240 226 166 141 301 243 204 208 212 228 246 220 97 156 268 291 59 102 266 312 325 288 307 317 306 307 179 168 162 165 172 179 184 189 188
307 309 318 324 318 317 316 298 288 294 275 201 215 223 244 277 309 333 3 39 333 261 50 48 288 3 345 218 178 160 154 284 240 216 204 199 193 185 179 170 163 197 163 122 180 238 178 160 162 156 148 147 173 242 223 154 128 259 236 178 181 199 219 223 153 159 230 263 318 18 118 239 298 289 285 309 331 339 357 163 174 164 167 173 179 184 187 185
307 309 318 322 316 312 311 302 291 281 241 228 243 220 222 251 277 338 66 55 312 279 37 21 20 6 355 202 184 180 298 311 63 217 204 192 182 179 185 192 179 185 164 138 195 236 166 169 179 160 145 171 204 211 186 156 158 242 219 164 169 184 193 181 149 184 244 355 312 304 133 207 277 276 301 340 23 350 343 303 201 176 173 175 178 183 184 183
305 310 316 317 310 303 304 299 288 269 247 242 242 223 215 209 232 54 82 96 275 14 8 347 33 1 10 149 198 223 304 339 9 214 188 182 183 177 185 204 179 153 181 172 200 222 187 192 186 156 150 202 217 203 166 168 205 225 167 135 113 111 129 134 143 161 86 52 258 260 194 196 274 287 314 4 31 327 314 311 224 190 181 179 179 180 181 181
306 312 312 311 307 297 294 291 280 268 241 201 200 222 190 158 103 70 83 254 267 359 349 341 8 336 354 98 239 245 255 307 0 130 162 176 186 172 141 190 160 109 189 279 233 232 294 218 168 155 186 204 204 199 178 186 201 148 107 90 61 44 58 74 96 104 86 272 251 232 201 188 266 285 277 266 310 287 283 286 223 196 185 183 181 179 179 178
309 312 306 306 306 299 297 292 274 252 199 169 263 183 148 123 67 95 180 258 280 340 346 353 347 340 346 4 292 250 216 261 29 131 158 163 169 163 98 141 139 81 5 314 292 299 339 27 177 209 215 198 162 203 215 211 203 111 79 86 87 324 23 40 355 51 103 256 261 229 190 163 207 261 258 262 285 274 252 246 224 203 186 183 183 182 181 181
313 306 299 301 303 301 299 286 267 243 203 191 259 162 141 85 23 166 244 310 356 331 333 331 327 332 327 323 267 241 213 200 160 140 166 140 145 184 165 161 171 88 333 258 262 328 309 230 244 246 227 200 164 230 293 315 110 124 125 102 98 308 22 27 300 38 195 252 252 196 165 153 219 245 258 289 298 281 250 238 225 214 194 184 185 184 184 184
310 297 294 293 294 296 290 287 276 236 211 197 158 137 108 79 219 222 291 331 1 305 304 306 313 309 306 333 328 274 288 168 183 139 140 110 138 201 232 175 167 142 183 216 197 309 306 296 283 254 253 205 170 180 252 253 150 149 157 145 139 136 90 276 269 261 257 266 258 193 183 229 266 261 271 299 303 292 279 250 221 215 204 192 189 185 186 187
304 295 291 267 264 312 299 299 282 208 199 184 141 94 90 127 228 243 352 293 276 306 310 313 311 310 314 347 324 315 33 5 282 123 120 100 130 205 264 280 186 146 125 147 161 185 185 317 256 189 249 186 173 197 201 164 150 169 164 139 145 157 150 203 221 207 247 271 304 286 196 181 225 264 281 301 305 308 306 243 200 207 212 199 189 185 186 189
293 291 264 192 148 37 354 340 191 168 171 163 110 76 125 196 249 103 245 269 297 318 311 319 325 340 345 309 307 334 13 320 16 77 110 147 161 193 200 211 203 139 124 163 222 178 149 260 252 241 254 158 189 224 166 116 128 207 143 111 161 189 154 153 188 177 185 244 324 313 242 207 217 265 289 321 319 330 15 141 167 189 210 192 185 190 197 197
287 278 191 171 138 57 42 58 108 144 160 151 85 70 183 210 214 153 183 270 309 316 318 332 2 40 343 313 325 342 343 66 37 42 66 202 209 202 193 203 193 162 152 166 211 170 113 266 274 309 293 210 212 221 170 154 188 180 133 172 219 175 128 118 195 107 82 141 278 299 261 291 324 293 292 338 339 353 44 128 145 129 116 109 92 63 36 211
281 237 178 174 148 80 63 67 88 130 155 136 89 171 218 220 181 183 241 317 284 304 20 4 338 17 353 321 308 318 336 34 30 14 215 294 278 207 205 224 179 184 187 168 207 204 144 266 283 303 278 268 244 206 202 171 148 126 182 209 195 90 89 113 165 9 46 209 269 326 281 290 338 286 301 340 341 357 16 58 97 85 84 84 70 54 48 53
196 162 170 177 168 114 80 72 81 123 142 102 75 222 228 218 193 206 299 328 298 330 72 145 274 357 19 323 284 296 327 14 359 334 182 251 265 189 181 209 155 220 209 179 190 239 145 281 293 270 249 295 342 82 340 334 55 140 177 169 111 125 195 100 143 145 134 219 282 323 313 256 204 224 282 348 350 3 10 28 55 63 78 80 72 64 58 62
132 134 147 172 172 137 101 77 69 112 111 82 69 241 217 242 251 272 302 312 262 93 63 216 235 350 340 259 253 284 335 33 284 317 147 187 240 186 137 191 126 325 214 169 164 227 114 127 285 278 260 302 359 30 293 300 337 34 122 114 59 139 166 164 152 161 163 175 244 312 331 270 227 218 211 243 348 14 21 32 45 42 36 50 68 70 66 74
147 122 113 159 170 159 149 14 23 69 84 101 188 212 225 253 273 294 302 299 221 201 241 211 209 311 284 273 260 270 331 89 162 204 222 219 242 302 350 308 153 31 31 118 127 127 65 96 241 283 311 351 3 313 241 198 181 103 140 184 312 83 135 151 99 92 124 145 181 176 289 267 249 226 228 304 10 30 54 68 64 52 35 31 58 73 70 77
144 106 105 158 172 175 175 345 19 64 80 130 196 214 268 276 274 291 298 288 234 237 233 203 198 226 240 285 283 269 334 346 122 115 225 271 107 130 340 317 206 66 23 46 69 136 119 123 183 303 349 7 258 260 292 89 175 171 168 180 180 136 123 136 263 302 102 126 168 161 207 268 268 256 332 39 44 45 74 88 75 67 69 62 61 76 92 102
142 104 127 161 176 185 180 10 17 69 107 164 259 252 261 294 283 282 300 293 240 242 240 209 220 225 213 231 258 283 353 328 325 45 200 291 202 167 325 319 247 109 107 143 289 208 140 112 129 265 292 253 260 267 303 6 35 101 145 150 145 127 119 135 196 232 114 110 146 123 166 269 273 61 60 71 75 74 85 94 87 86 94 90 82 96 112 105
122 108 136 161 175 180 168 355 349 8 227 253 293 270 258 279 268 292 322 326 289 296 340 289 239 240 233 239 273 340 353 331 332 1 38 342 290 309 333 320 216 93 96 157 264 284 104 83 98 285 302 302 298 304 320 357 44 40 353 41 104 148 136 143 173 175 140 154 151 102 249 266 288 65 93 100 97 90 89 97 99 95 96 98 100 108 109 106
110 101 125 161 173 175 145 287 291 322 297 314 346 326 309 261 228 307 323 313 319 338 44 304 290 335 307 302 332 311 301 1 24 349 53 56 318 337 351 354 142 113 45 180 194 155 101 45 122 90 356 341 336 336 335 348 31 51 315 330 338 95 105 118 132 91 108 203 154 134 223 259 143 104 115 102 93 82 74 88 100 97 90 90 91 91 94 106
118 96 108 156 175 194 248 182 156 183 270 350 358 332 339 323 293 327 285 280 321 347 171 296 299 310 332 338 343 320 313 190 303 346 30 14 325 343 354 4 55 84 48 112 130 132 123 125 145 138 159 185 203 250 253 270 330 339 328 341 342 9 111 147 131 87 179 245 119 141 212 243 147 128 124 109 91 78 71 81 92 95 99 102 101 99 99 104
130 102 118 160 188 214 244 177 120 122 183 60 10 327 0 343 322 341 329 267 350 5 18 324 334 357 16 10 358 331 331 319 334 40 34 343 310 320 338 355 33 42 43 73 75 100 110 70 103 123 145 185 201 226 237 203 94 355 331 345 343 326 332 97 97 105 183 171 9 224 200 158 149 143 130 118 92 84 82 75 74 81 95 109 118 121 116 110
132 139 150 147 202 234 35 99 106 103 147 132 103 330 348 318 314 349 29 27 4 13 27 28 23 34 11 0 1 311 330 350 12 33 12 329 289 306 329 354 31 22 22 61 40 70 105 56 61 94 74 293 248 262 283 51 96 85 358 349 343 332 348 67 107 160 151 123 292 262 184 140 158 152 134 126 106 97 84 68 72 79 89 101 110 113 113 110
142 163 147 139 181 218 64 59 105 95 89 106 110 351 359 350 340 348 332 327 5 27 45 14 9 24 341 329 322 295 340 12 16 354 347 355 340 331 342 347 18 15 21 47 23 71 119 83 107 105 54 5 348 335 358 79 101 83 53 18 353 348 12 69 139 196 121 129 214 220 135 132 150 139 132 132 120 110 95 85 86 87 90 97 99 99 101 105
127 124 131 134 137 131 114 106 88 86 72 20 358 16 38 0 346 300 280 338 359 6 52 55 322 331 349 7 87 36 352 46 17 324 319 9 350 351 3 326 334 3 13 31 23 58 109 85 109 117 69 19 3 356 35 84 100 64 44 26 6 2 24 55 65 312 87 125 166 128 102 80 60 120 116 110 108 104 97 93 91 89 91 95 95 94 94 98
135 130 140 129 94 58 69 70 69 75 40 3 0 349 111 60 344 307 281 98 11 326 37 73 303 296 27 50 53 31 307 153 160 282 216 71 2 57 79 244 283 342 349 359 20 15 80 108 132 99 75 2 352 355 15 63 97 80 36 18 8 6 17 32 35 5 36 108 112 97 94 51 359 78 100 100 102 100 93 89 88 88 90 92 92 93 94 94
133 139 146 134 85 9 17 44 67 83 32 8 343 299 325 329 312 302 280 222 180 216 310 307 300 300 42 37 12 307 286 184 206 254 243 202 234 228 201 204 191 347 333 330 2 5 63 111 120 77 85 324 335 346 342 18 77 71 32 11 359 1 6 350 352 349 336 122 119 109 115 114 26 88 96 87 82 81 76 76 81 86 89 90 88 87 87 88
126 138 147 136 82 355 14 55 57 82 101 271 241 260 272 277 303 342 340 292 238 152 332 303 251 330 5 11 330 307 312 295 268 274 273 258 252 251 260 265 237 216 277 311 19 15 84 117 120 90 101 279 316 339 335 5 44 16 359 355 337 322 306 309 336 354 336 327 139 146 151 140 131 117 102 81 64 61 59 63 77 89 93 92 89 85 82 83